Regional Weather Roundup
Issued by NWS Kansas City/Pleasant Hill, MO

Home | Current Version | Previous Version | Text Only | Print | Product List | Glossary On
Versions: 1 2 3 4 5 6 7 8 9 10 11 12 13 14 15 16 17 18 19 20 21 22 23 24 25 26 27 28 29 30 31 32 33 34 35 36 37 38 39 40 41 42 43 44 45 46 47 48 49 50
000
ASUS43 KEAX 250510
RWREAX

WEATHER ROUNDUP FOR EASTERN KANSAS AND NORTHWEST MISSOURI
NATIONAL WEATHER SERVICE KANSAS CITY/PLEASANT HILL MO
1200 AM CDT TUE JUL 25 2017

KSZ040-057-103>105-MOZ028-029-037-043-250600-
...KANSAS CITY METROPOLITAN AREA...

CITY           SKY/WX    TMP DP  RH WIND       PRES   REMARKS
K.C. INTL      CLEAR     75  68  78 SE7       30.03R
K.C. DOWNTOWN  CLEAR     78  69  73 E6        30.02R
LEES SUMMIT    CLEAR     73  69  87 E6        30.05R
OLATHE - IXD   CLEAR     75  68  78 E8        30.04R
OLATHE - OJC   CLEAR     74  69  85 E6        30.04R
LAWRENCE       CLEAR     74  71  91 E3        30.02R

$$

MOZ001>008-011>017-020>025-030>033-038>040-044>046-053-054-250600-
...NORTHERN AND CENTRAL MISSOURI...

CITY           SKY/WX    TMP DP  RH WIND       PRES   REMARKS
ST. JOSEPH     CLEAR     75  69  81 SE6       30.03R
MOSBY          CLEAR     72  68  88 CALM      30.04R
WARRENSBURG    CLEAR     70  66  88 NE3       30.04R
WHITEMAN AFB   CLEAR     70  70 100 E3        30.03R
CLINTON        CLEAR     72  66  83 E3        30.04R
SEDALIA        CLEAR     73  69  87 E5        30.05R
WARSAW         NOT AVBL
CHILLICOTHE      N/A     68  67  96 CALM      30.06R
KIRKSVILLE     CLEAR     69  66  90 E7        30.08R

$$

MOZ041-047>049-056>058-063>065-088>090-097-250600-
...EASTERN AND SOUTHERN MISSOURI...

CITY           SKY/WX    TMP DP  RH WIND       PRES   REMARKS
ST. LOUIS INTL CLEAR     78  67  68 E10       30.05R
SPIRIT OF STL  CLEAR     75  70  84 E7        30.03R
COLUMBIA       CLEAR     72  66  81 NE7       30.05R
JEFFERSON CITY CLEAR     74  68  81 S5        30.03R
ROLLA          CLEAR     73  66  78 NE8       30.04R
OSAGE BEACH    CLEAR     73  66  78 NE3       30.04R
SPRINGFIELD    CLEAR     76  74  93 CALM      30.03R
BRANSON          N/A     79  70  73 CALM      30.04S
JOPLIN         CLEAR     79  75  87 CALM      30.02R
WEST PLAINS    PTCLDY    77  74  90 CALM      30.04R

$$

IAZ060-094-KSZ022-034>040-054-083-096-NEZ052-066-093-250600-
...KANSAS...SOUTHEAST NEBRASKA AND IOWA...

CITY           SKY/WX    TMP DP  RH WIND       PRES   REMARKS
TOPEKA         CLEAR     76  72  87 E3        30.01R
MANHATTAN      CLEAR     80  75  84 VRB3      30.00R
EMPORIA        CLEAR     77  73  87 SE6       30.01R
CHANUTE        CLEAR     80  73  79 E5        30.01R
WICHITA        CLEAR     79  68  69 S8        30.01R
OMAHA          CLEAR     77  65  66 SE10      29.99S
LINCOLN        PTCLDY    78  66  66 S14       29.99R
FALLS CITY     CLEAR     71  68  90 SE5       30.01R
LAMONI         CLEAR     72  65  78 CALM      30.06R
DES MOINES     CLEAR     72  65  78 E13       30.04R

$$




USA.gov is the U.S. government's official web portal to all federal, state and local government web resources and services.